When you browse on this site, cookies collect data to enhance your experience and personalize the content and advertising you see.
Visit our Privacy Policy to learn more. By continuing to use the site, you agree to this use of cookies and data.
  • In Österreich
  • Länderverzeichnis
  • Für 7 Tage
  • Wassertemperatur
  • Satellitenkarten
  • Wetterkarte
  • News
  • Widgets
  • user-avatar
    Anmelden

    Stündliche Wetter Durres

    Heute, 19 Juli, Freitag

    Zeit Temperatur Niederschläge Wind Luftdruck Luftfeuchtigkeit
    00:00 +23°C° 0 mm 1 m/S 759 mmHg 68%
    01:00 +22°C° 0 mm 1 m/S 759 mmHg 68%
    02:00 +22°C° 0 mm 1 m/S 759 mmHg 68%
    03:00 +22°C° 0 mm 1 m/S 759 mmHg 69%
    04:00 +22°C° 0 mm 1 m/S 759 mmHg 69%
    05:00 +23°C° 0 mm 1 m/S 759 mmHg 64%
    06:00 +25°C° 0 mm 1 m/S 759 mmHg 59%
    07:00 +27°C° 0 mm 2 m/S 759 mmHg 54%
    08:00 +28°C° 0 mm 1 m/S 760 mmHg 49%
    09:00 +30°C° 0 mm 1 m/S 760 mmHg 45%
    10:00 +31°C° 0 mm 1 m/S 760 mmHg 40%
    11:00 +32°C° 0 mm 2 m/S 760 mmHg 40%
    12:00 +32°C° 0 mm 2 m/S 760 mmHg 40%
    13:00 +33°C° 0 mm 3 m/S 760 mmHg 40%
    14:00 +33°C° 0 mm 3 m/S 760 mmHg 41%
    15:00 +31°C° 0 mm 3 m/S 760 mmHg 42%
    16:00 +32°C° 0 mm 4 m/S 760 mmHg 43%
    17:00 +29°C° 0 mm 3 m/S 760 mmHg 50%
    18:00 +27°C° 0 mm 2 m/S 760 mmHg 56%
    19:00 +25°C° 0 mm 1 m/S 760 mmHg 63%
    20:00 +25°C° 0 mm 1 m/S 761 mmHg 65%
    21:00 +24°C° 0 mm 1 m/S 761 mmHg 67%
    22:00 +23°C° 0 mm 2 m/S 761 mmHg 68%
    23:00 +23°C° 0 mm 1 m/S 761 mmHg 68%

    Morgen, 20 Juli, Samstag

    Zeit Temperatur Niederschläge Wind Luftdruck Luftfeuchtigkeit
    00:00 +23°C° 0 mm 1 m/S 761 mmHg 68%
    01:00 +22°C° 0 mm 1 m/S 761 mmHg 67%
    02:00 +22°C° 0 mm 1 m/S 761 mmHg 67%
    03:00 +22°C° 0 mm 1 m/S 761 mmHg 67%
    04:00 +22°C° 0 mm 1 m/S 761 mmHg 67%
    05:00 +23°C° 0 mm 1 m/S 761 mmHg 61%
    06:00 +25°C° 0 mm 2 m/S 761 mmHg 56%
    07:00 +27°C° 0 mm 2 m/S 762 mmHg 50%
    08:00 +29°C° 0 mm 2 m/S 762 mmHg 45%
    09:00 +31°C° 0 mm 2 m/S 762 mmHg 40%
    10:00 +34°C° 0 mm 2 m/S 762 mmHg 35%
    11:00 +34°C° 0 mm 3 m/S 762 mmHg 35%
    12:00 +35°C° 0 mm 4 m/S 762 mmHg 34%
    13:00 +36°C° 0 mm 4 m/S 762 mmHg 33%
    14:00 +35°C° 0 mm 5 m/S 762 mmHg 37%
    15:00 +34°C° 0 mm 5 m/S 761 mmHg 40%
    16:00 +32°C° 0 mm 5 m/S 761 mmHg 43%
    17:00 +30°C° 0 mm 4 m/S 762 mmHg 49%
    18:00 +28°C° 0 mm 4 m/S 762 mmHg 55%
    19:00 +26°C° 0 mm 3 m/S 762 mmHg 61%
    20:00 +25°C° 0 mm 2 m/S 762 mmHg 63%
    21:00 +25°C° 0 mm 2 m/S 763 mmHg 64%
    22:00 +24°C° 0 mm 1 m/S 763 mmHg 66%
    23:00 +24°C° 0 mm 1 m/S 763 mmHg 66%

    übermorgen, 21 Juli, Sonntag

    Zeit Temperatur Niederschläge Wind Luftdruck Luftfeuchtigkeit
    00:00 +24°C° 0 mm 1 m/S 763 mmHg 67%
    01:00 +24°C° 0 mm 1 m/S 763 mmHg 67%
    02:00 +24°C° 0 mm 1 m/S 763 mmHg 67%
    03:00 +23°C° 0 mm 1 m/S 762 mmHg 68%
    04:00 +23°C° 0 mm 2 m/S 762 mmHg 69%
    05:00 +25°C° 0 mm 2 m/S 762 mmHg 63%
    06:00 +27°C° 0 mm 2 m/S 762 mmHg 58%
    07:00 +28°C° 0 mm 2 m/S 762 mmHg 52%
    08:00 +30°C° 0 mm 2 m/S 763 mmHg 47%
    09:00 +33°C° 0 mm 3 m/S 763 mmHg 43%
    10:00 +35°C° 0 mm 3 m/S 763 mmHg 38%
    11:00 +36°C° 0 mm 4 m/S 763 mmHg 36%
    12:00 +36°C° 0 mm 4 m/S 763 mmHg 35%
    13:00 +37°C° 0 mm 5 m/S 762 mmHg 34%
    14:00 +36°C° 0 mm 5 m/S 762 mmHg 36%
    15:00 +35°C° 0 mm 5 m/S 762 mmHg 38%
    16:00 +34°C° 0 mm 6 m/S 762 mmHg 40%
    17:00 +32°C° 0 mm 5 m/S 762 mmHg 46%
    18:00 +29°C° 0 mm 4 m/S 762 mmHg 52%
    19:00 +27°C° 0 mm 3 m/S 762 mmHg 58%
    20:00 +27°C° 0 mm 2 m/S 763 mmHg 59%
    21:00 +26°C° 0 mm 2 m/S 763 mmHg 61%
    22:00 +25°C° 0 mm 1 m/S 763 mmHg 62%
    23:00 +25°C° 0 mm 1 m/S 763 mmHg 63%

    22 Juli, Montag

    Zeit Temperatur Niederschläge Wind Luftdruck Luftfeuchtigkeit
    00:00 +25°C° 0 mm 1 m/S 763 mmHg 64%
    01:00 +25°C° 0 mm 1 m/S 763 mmHg 64%
    02:00 +25°C° 0 mm 1 m/S 762 mmHg 65%
    03:00 +25°C° 0 mm 1 m/S 762 mmHg 65%
    04:00 +24°C° 0 mm 2 m/S 762 mmHg 65%
    05:00 +26°C° 0 mm 1 m/S 762 mmHg 59%
    06:00 +28°C° 0 mm 1 m/S 762 mmHg 53%
    07:00 +30°C° 0 mm 1 m/S 762 mmHg 48%
    08:00 +32°C° 0 mm 2 m/S 762 mmHg 43%
    09:00 +35°C° 0 mm 2 m/S 762 mmHg 38%
    10:00 +37°C° 0 mm 3 m/S 763 mmHg 33%
    11:00 +38°C° 0 mm 4 m/S 762 mmHg 30%
    12:00 +40°C° 0 mm 5 m/S 762 mmHg 28%
    13:00 +41°C° 0 mm 6 m/S 762 mmHg 26%
    14:00 +40°C° 0 mm 6 m/S 762 mmHg 28%
    15:00 +39°C° 0 mm 7 m/S 761 mmHg 30%
    16:00 +39°C° 0 mm 7 m/S 761 mmHg 32%
    17:00 +35°C° 0 mm 7 m/S 761 mmHg 39%
    18:00 +33°C° 0 mm 6 m/S 761 mmHg 46%
    19:00 +29°C° 0 mm 6 m/S 761 mmHg 53%
    20:00 +29°C° 0 mm 5 m/S 761 mmHg 53%
    21:00 +28°C° 0 mm 5 m/S 761 mmHg 53%
    22:00 +28°C° 0 mm 4 m/S 762 mmHg 53%
    23:00 +28°C° 0 mm 4 m/S 761 mmHg 52%

    23 Juli, Dienstag

    Zeit Temperatur Niederschläge Wind Luftdruck Luftfeuchtigkeit
    00:00 +28°C° 0 mm 3 m/S 761 mmHg 51%
    01:00 +28°C° 0 mm 3 m/S 761 mmHg 49%
    02:00 +27°C° 0 mm 2 m/S 761 mmHg 49%
    03:00 +27°C° 0 mm 2 m/S 761 mmHg 50%
    04:00 +27°C° 0 mm 2 m/S 760 mmHg 50%
    05:00 +28°C° 0 mm 2 m/S 760 mmHg 47%
    06:00 +30°C° 0 mm 3 m/S 761 mmHg 44%
    07:00 +33°C° 0 mm 3 m/S 761 mmHg 42%
    08:00 +35°C° 0 mm 4 m/S 760 mmHg 37%
    09:00 +37°C° 0 mm 4 m/S 760 mmHg 32%
    10:00 +40°C° 0 mm 5 m/S 760 mmHg 27%
    11:00 +40°C° 0 mm 6 m/S 760 mmHg 26%
    12:00 +41°C° 0 mm 7 m/S 759 mmHg 25%
    13:00 +41°C° 0 mm 8 m/S 759 mmHg 24%
    14:00 +40°C° 0 mm 8 m/S 759 mmHg 26%
    15:00 +39°C° 0 mm 8 m/S 758 mmHg 28%
    16:00 +38°C° 0 mm 8 m/S 758 mmHg 31%
    17:00 +35°C° 0 mm 8 m/S 758 mmHg 38%
    18:00 +32°C° 0 mm 8 m/S 758 mmHg 45%
    19:00 +29°C° 0 mm 8 m/S 758 mmHg 52%
    20:00 +29°C° 0 mm 7 m/S 758 mmHg 53%
    21:00 +28°C° 0 mm 6 m/S 759 mmHg 54%
    22:00 +28°C° 0 mm 5 m/S 759 mmHg 56%
    23:00 +27°C° 0 mm 4 m/S 759 mmHg 56%

    24 Juli, Mittwoch

    Zeit Temperatur Niederschläge Wind Luftdruck Luftfeuchtigkeit
    00:00 +27°C° 0 mm 4 m/S 759 mmHg 56%
    01:00 +26°C° 0 mm 4 m/S 758 mmHg 56%
    02:00 +26°C° 0 mm 4 m/S 758 mmHg 56%
    03:00 +25°C° 0 mm 5 m/S 758 mmHg 56%
    04:00 +25°C° 0 mm 5 m/S 758 mmHg 56%
    05:00 +26°C° 0 mm 5 m/S 758 mmHg 53%
    06:00 +28°C° 0 mm 5 m/S 758 mmHg 50%
    07:00 +29°C° 0 mm 6 m/S 758 mmHg 46%
    08:00 +32°C° 0 mm 6 m/S 758 mmHg 41%
    09:00 +34°C° 0 mm 6 m/S 758 mmHg 37%
    10:00 +36°C° 0 mm 6 m/S 758 mmHg 32%
    11:00 +38°C° 0 mm 6 m/S 758 mmHg 30%
    12:00 +39°C° 0 mm 7 m/S 758 mmHg 28%
    13:00 +40°C° 0 mm 7 m/S 757 mmHg 26%
    14:00 +39°C° 0 mm 8 m/S 757 mmHg 27%
    15:00 +38°C° 0 mm 8 m/S 757 mmHg 29%
    16:00 +37°C° 0 mm 9 m/S 756 mmHg 31%
    17:00 +34°C° 0 mm 8 m/S 757 mmHg 38%
    18:00 +31°C° 0 mm 8 m/S 757 mmHg 46%
    19:00 +28°C° 0 mm 8 m/S 757 mmHg 53%
    20:00 +27°C° 0 mm 7 m/S 757 mmHg 54%
    21:00 +27°C° 0 mm 6 m/S 757 mmHg 56%
    22:00 +26°C° 0 mm 5 m/S 758 mmHg 58%
    23:00 +26°C° 0 mm 5 m/S 758 mmHg 56%
    Mehr zeigen